IRIDIUM 121

Last updated on Tue Sep 22 2026 00:03:21 GMT+0000 (Coordinated Universal Time)

1 42812U 17039K 26264.44822913 .00000140 00000+0 42946-4 0 9993 2 42812 86.3973 313.4566 0002174 94.5757 265.5687 14.34218199483628
UTC large
Height (km)
Speed (km/s)
/
Latitude / Longitude
Inclination (degrees)
Orbital Period (minutes)
Azimuth
Elevation
Range (km)
Doppler Factor

Next 0 passes for location: London (51.5072 / 0.1276)

No passes found over London.
IRIDIUM 121